FW4660 Weather Reports


Display with metric or nautical units.
time (UTC)temp
F
wind
direction
speed
MPH
gust
MPH
rain 1hr
in
rain 24hr
in
rain mn
in
humidity
%
barometer
mb
20191018010123 69 217 12.0 19.0 0.00 0.00 0.00 57 1006.4
20191018004611 71 210 13.0 17.0 0.00 0.00 0.00 52 1006.2
20191018003047 71 221 11.0 18.0 0.00 0.00 0.00 49 1006.2
20191018001628 72 213 11.0 19.0 0.00 0.00 0.00 45 1006.3
20191018000127 73 196 10.0 17.0 0.00 0.00 0.00 42 1006.3
20191017234552 74 205 11.0 19.0 0.00 0.00 0.00 41 1006.4
20191017233142 75 198 10.0 18.0 0.00 0.00 0.00 39 1006.5
20191017231655 75 198 9.0 19.0 0.00 0.00 0.00 41 1006.6
20191017230109 75 211 14.0 20.0 0.00 0.00 0.00 39 1006.6
20191017224556 75 214 10.0 23.0 0.00 0.00 0.00 38 1006.8
20191017223118 76 217 13.0 22.0 0.00 0.00 0.00 38 1006.8
20191017221631 76 213 9.0 20.0 0.00 0.00 0.00 37 1007.0
20191017220107 76 246 10.0 18.0 0.00 0.00 0.00 40 1007.0
20191017214540 75 172 11.0 25.0 0.00 0.00 0.00 41 1007.1
20191017213039 76 196 14.0 20.0 0.00 0.00 0.00 41 1007.3
20191017211615 76 196 11.0 21.0 0.00 0.00 0.00 41 1007.4
20191017210044 76 223 10.0 20.0 0.00 0.00 0.00 38 1007.5
20191017204554 77 178 11.0 19.0 0.00 0.00 0.00 36 1007.6
20191017203050 77 199 10.0 18.0 0.00 0.00 0.00 30 1007.6
20191017201550 77 219 12.0 19.0 0.00 0.00 0.00 28 1007.7
20191017200034 78 217 11.0 16.0 0.00 0.00 0.00 26 1008.1
20191017194529 78 210 9.0 16.0 0.00 0.00 0.00 25 1008.3
20191017193023 77 214 10.0 17.0 0.00 0.00 0.00 25 1008.5
20191017191548 77 194 8.0 15.0 0.00 0.00 0.00 27 1008.7
20191017190024 76 195 9.0 14.0 0.00 0.00 0.00 27 1008.8
20191017184509 76 204 10.0 17.0 0.00 0.00 0.00 28 1008.8
20191017183022 75 244 9.0 11.0 0.00 0.00 0.00 29 1009.0
20191017181701 74 223 3.0 7.0 0.00 0.00 0.00 30 1008.9
20191017180137 74 163 2.0 5.0 0.00 0.00 0.00 35 1009.0
20191017174713 72 134 2.0 6.0 0.00 0.00 0.00 37 1009.3
20191017173054 71 215 2.0 5.0 0.00 0.00 0.00 39 1009.4
20191017171616 71 150 0.0 5.0 0.00 0.00 0.00 40 1009.7
20191017170122 69 216 3.0 7.0 0.00 0.00 0.00 41 1009.7
20191017164611 68 240 5.0 9.0 0.00 0.00 0.00 43 1009.7
20191017163050 67 223 4.0 8.0 0.00 0.00 0.00 44 1009.8
20191017161530 66 250 4.0 7.0 0.00 0.00 0.00 43 1009.6
20191017160040 65 260 1.0 4.0 0.00 0.00 0.00 43 1009.6
20191017154529 63 236 2.0 3.0 0.00 0.00 0.00 43 1009.6
20191017153016 60 238 1.0 3.0 0.00 0.00 0.00 43 1009.5
20191017151522 58 238 1.0 2.0 0.00 0.00 0.00 46 1009.3
20191017150006 57 238 2.0 3.0 0.00 0.00 0.00 48 1008.8
20191017144502 58 119 0.0 2.0 0.00 0.00 0.00 45 1008.8
20191017141722 56 104 2.0 3.0 0.00 0.00 0.00 47 1008.8
20191017140206 56 103 2.0 3.0 0.00 0.00 0.00 49 1008.9
20191017134613 57 309 1.0 2.0 0.00 0.00 0.00 46 1008.8
20191017133144 57 309 0.0 3.0 0.00 0.00 0.00 45 1008.9
20191017131810 58 5 1.0 3.0 0.00 0.00 0.00 43 1008.8
20191017130214 57 58 0.0 4.0 0.00 0.00 0.00 43 1008.7
20191017124713 56 90 1.0 3.0 0.00 0.00 0.00 45 1008.7
20191017123220 57 115 2.0 3.0 0.00 0.00 0.00 46 1008.7
20191017121632 58 168 1.0 2.0 0.00 0.00 0.00 41 1008.6
20191017120124 60 90 0.0 2.0 0.00 0.00 0.00 38 1008.7
20191017114612 60 90 1.0 4.0 0.00 0.00 0.00 38 1008.4
20191017113108 59 90 2.0 3.0 0.00 0.00 0.00 38 1008.3
20191017111702 59 108 3.0 4.0 0.00 0.00 0.00 37 1008.2
20191017110128 61 37 2.0 4.0 0.00 0.00 0.00 35 1008.3
20191017104611 60 26 4.0 5.0 0.00 0.00 0.00 35 1008.1
20191017103125 62 157 0.0 5.0 0.00 0.00 0.00 40 1008.1
20191017101634 60 178 1.0 3.0 0.00 0.00 0.00 39 1008.4
20191017100138 59 228 0.0 2.0 0.00 0.00 0.00 39 1008.5
20191017094622 59 229 1.0 2.0 0.00 0.00 0.00 42 1008.6
20191017093129 60 229 0.0 1.0 0.00 0.00 0.00 41 1008.9
20191017091601 60 229 0.0 2.0 0.00 0.00 0.00 40 1009.1
20191017090100 60 112 2.0 4.0 0.00 0.00 0.00 37 1009.3
20191017084654 60 101 2.0 4.0 0.00 0.00 0.00 39 1009.3
20191017083044 60 104 2.0 4.0 0.00 0.00 0.00 39 1009.4
20191017081535 61 119 2.0 3.0 0.00 0.00 0.00 40 1009.4
20191017080037 62 119 0.0 1.0 0.00 0.00 0.00 43 1009.4
20191017074548 62 119 1.0 2.0 0.00 0.00 0.00 42 1009.4
20191017073107 63 113 1.0 3.0 0.00 0.00 0.00 38 1009.4
20191017071550 64 113 1.0 2.0 0.00 0.00 0.00 37 1009.6
20191017070027 65 113 0.0 3.0 0.00 0.00 0.00 35 1009.7
20191017064519 65 114 2.0 3.0 0.00 0.00 0.00 36 1009.8
20191017063017 66 113 3.0 4.0 0.00 0.00 0.00 37 1009.9
20191017061514 67 85 1.0 2.0 0.00 0.00 0.00 34 1010.0
20191017060043 67 85 1.0 3.0 0.00 0.00 0.00 34 1010.1
20191017054514 68 85 1.0 2.0 0.00 0.00 0.00 33 1010.1
20191017053016 69 85 2.0 4.0 0.00 0.00 0.00 34 1010.0
20191017051531 69 84 3.0 6.0 0.00 0.00 0.00 34 1010.1
20191017050019 70 94 5.0 8.0 0.00 0.00 0.00 30 1010.0
20191017044516 71 92 4.0 6.0 0.00 0.00 0.00 30 1010.1
20191017043010 71 107 4.0 6.0 0.00 0.00 0.00 31 1010.0
20191017041519 72 124 2.0 4.0 0.00 0.00 0.00 31 1010.1
20191017040008 72 113 2.0 3.0 0.00 0.00 0.00 31 1009.9
20191017034516 73 113 1.0 3.0 0.00 0.00 0.00 30 1009.8
20191017033012 74 107 1.0 3.0 0.00 0.00 0.00 30 1009.9
20191017031508 74 117 2.0 3.0 0.00 0.00 0.00 30 1009.8
20191017030008 75 132 2.0 6.0 0.00 0.00 0.00 29 1009.7
20191017024506 76 172 2.0 4.0 0.00 0.00 0.00 30 1009.9
20191017023005 76 130 1.0 3.0 0.00 0.00 0.00 31 1009.8
20191017021504 76 98 1.0 7.0 0.00 0.00 0.00 33 1009.6
20191017020004 77 163 4.0 8.0 0.00 0.00 0.00 32 1009.3
20191017014521 77 144 7.0 9.0 0.00 0.00 0.00 32 1009.3
20191017013005 79 143 6.0 9.0 0.00 0.00 0.00 34 1009.0
20191017011503 80 169 4.0 10.0 0.00 0.00 0.00 30 1008.8